Location: *
(60.1759°S, 155.0663°W)
Time: 22:03:12
(UTC+00:00)

SL-16 R/B - Pass Details

Date: 17 September 2019
Orbit: 986 x 1006 km, 99.4° (Epoch: 19 October)

Event Time Altitude Azimuth Distance (km) Brightness Sun altitude
Rises 12:37:45 0° 161° (SSE) 3,750 6.7 -25.9°
Reaches altitude 10° 12:40:24 10° 154° (SSE) 2,793 5.8 -25.7°
Maximum altitude 12:46:23 44° 82° (E) 1,355 3.4 -25.2°
Enters shadow 12:49:58 23° 22° (NNE) 1,994 3.9 -24.9°
